Regional Weather Roundup
Issued by NWS Kansas City/Pleasant Hill, MO

Home | Current Version | Previous Version | Graphics & Text | Print | Product List | Glossary Off
Versions: 1 2 3 4 5 6 7 8 9 10 11 12 13 14 15 16 17 18 19 20 21 22 23 24 25 26 27 28 29 30 31 32 33 34 35 36 37 38 39 40 41 42 43 44 45 46 47 48 49 50

326
ASUS43 KEAX 112310
RWREAX

WEATHER ROUNDUP FOR EASTERN KANSAS AND NORTHWEST MISSOURI
NATIONAL WEATHER SERVICE KANSAS CITY/PLEASANT HILL MO
500 PM CST THU FEB 11 2016

KSZ040-057-103>105-MOZ028-029-037-043-120000-
...KANSAS CITY METROPOLITAN AREA...

CITY           SKY/WX    TMP DP  RH WIND       PRES   REMARKS
K.C. INTL      MOCLDY    34  21  59 S7        30.19F WCI  28
K.C. DOWNTOWN  MOCLDY    37  20  50 VRB3      30.21F
LEES SUMMIT    CLOUDY    35  20  54 E3        30.20F
OLATHE - IXD   PTCLDY    37  22  54 SE8       30.18F WCI  31
OLATHE - OJC   CLOUDY    36  21  54 SE8       30.19F WCI  30
LAWRENCE       PTCLDY    38  22  52 SE3       30.20F

$$

MOZ001>008-011>017-020>025-030>033-038>040-044>046-053-054-120000-
...NORTHERN AND CENTRAL MISSOURI...

CITY           SKY/WX    TMP DP  RH WIND       PRES   REMARKS
ST. JOSEPH     CLOUDY    35  21  56 S10       30.21S WCI  27
MOSBY          CLOUDY    34  21  60 SE3       30.21F
WARRENSBURG    PTCLDY    34  21  60 NE5       30.22S WCI  30
WHITEMAN AFB   MOCLDY    36  19  51 E6        30.20S WCI  31
CLINTON          N/A     39  23  52 E5        30.21R
SEDALIA        PTCLDY    36  19  50 E6        30.23S WCI  31
WARSAW         NOT AVBL
CHILLICOTHE      N/A     30  16  56 E6        30.25R WCI  24
KIRKSVILLE     CLOUDY    23   6  48 E6        30.27R WCI  16

$$

MOZ041-047>049-056>058-063>065-088>090-097-120000-
...EASTERN AND SOUTHERN MISSOURI...

CITY           SKY/WX    TMP DP  RH WIND       PRES   REMARKS
ST. LOUIS INTL CLOUDY    30   9  41 E8        30.30R WCI  22
SPIRIT OF STL  CLOUDY    29  11  47 E5        30.30R WCI  24
COLUMBIA       CLOUDY    32  18  56 E7        30.23F WCI  26
JEFFERSON CITY CLOUDY    35  19  52 SE6       30.24F WCI  30
ROLLA          MOCLDY    34  20  56 E6        30.21S WCI  29
OSAGE BEACH    CLOUDY    37  19  48 E6        30.19F WCI  33
SPRINGFIELD    PTCLDY    45  18  34 SE7       30.13F
BRANSON        CLOUDY    45  19  36 E8        30.19R
JOPLIN         PTCLDY    45  23  42 E6        30.16F
WEST PLAINS    CLOUDY    44  18  35 CALM      30.22R

$$

IAZ060-094-KSZ022-034>040-054-083-096-NEZ052-066-093-120000-
...KANSAS...SOUTHEAST NEBRASKA AND IOWA...

CITY           SKY/WX    TMP DP  RH WIND       PRES   REMARKS
TOPEKA         CLOUDY    40  21  46 SE6       30.19F
MANHATTAN      PTCLDY    42  24  49 S7        30.14F
EMPORIA        PTCLDY    42  23  46 VRB3      30.16S
CHANUTE        PTCLDY    44  24  45 E6        30.17R
WICHITA        PTSUNNY   47  26  44 S3        30.14F
OMAHA          CLOUDY    27  19  72 E3        30.18F
LINCOLN        CLOUDY    28  23  81 S8        30.18R WCI  20
FALLS CITY     CLOUDY    35  22  58 S10       30.17S WCI  27
LAMONI         CLOUDY    26  10  50 E7        30.20F WCI  18
DES MOINES     LGT SNOW  20   6  55 SE6       30.25S WCI  12

$$





USA.gov is the U.S. government's official web portal to all federal, state and local government web resources and services.